Time,TemperatureF,DewpointF,PressureIn,WindDirection,WindDirectionDegrees,WindSpeedMPH,WindSpeedGustMPH,Humidity,HourlyPrecipIn,Conditions,Clouds,dailyrainin,SoftwareType,DateUTC
2013-05-04 00:02:00,74.1,25.0,29.68,SW,225,10.0,11.0,16,0.00,,,0.00,Wunderground v.1.15,2013-05-04 07:02:00,
2013-05-04 00:08:00,73.7,26.1,29.68,SSW,193,9.0,12.0,17,0.00,,,0.00,Wunderground v.1.15,2013-05-04 07:08:00,
2013-05-04 00:14:00,73.6,26.1,29.68,SSW,213,11.0,12.0,17,0.00,,,0.00,Wunderground v.1.15,2013-05-04 07:14:00,
2013-05-04 00:20:00,73.4,25.9,29.68,SW,221,10.0,12.0,17,0.00,,,0.00,Wunderground v.1.15,2013-05-04 07:20:00,
2013-05-04 00:26:00,73.1,25.7,29.68,SSW,200,9.0,12.0,17,0.00,,,0.00,Wunderground v.1.15,2013-05-04 07:26:00,
2013-05-04 00:32:00,72.7,25.3,29.67,SSW,198,9.0,13.0,17,0.00,,,0.00,Wunderground v.1.15,2013-05-04 07:32:00,
2013-05-04 00:38:00,72.4,26.5,29.67,SSW,205,10.0,13.0,18,0.00,,,0.00,Wunderground v.1.15,2013-05-04 07:38:00,
2013-05-04 00:44:00,72.5,26.5,29.67,SW,229,11.0,19.0,18,0.00,,,0.00,Wunderground v.1.15,2013-05-04 07:44:00,
2013-05-04 00:50:00,72.7,26.7,29.67,WSW,242,11.0,12.0,18,0.00,,,0.00,Wunderground v.1.15,2013-05-04 07:50:00,
2013-05-04 00:56:00,72.8,26.8,29.67,SSW,210,11.0,13.0,18,0.00,,,0.00,Wunderground v.1.15,2013-05-04 07:56:00,
2013-05-04 01:02:00,72.8,28.1,29.67,SW,215,11.0,11.0,19,0.00,,,0.00,Wunderground v.1.15,2013-05-04 08:02:00,
2013-05-04 01:08:00,72.9,28.2,29.66,SSW,196,11.0,12.0,19,0.00,,,0.00,Wunderground v.1.15,2013-05-04 08:08:00,
2013-05-04 01:14:00,72.9,28.2,29.66,SW,228,11.0,12.0,19,0.00,,,0.00,Wunderground v.1.15,2013-05-04 08:14:00,
2013-05-04 01:20:00,73.0,28.3,29.66,SSW,212,13.0,13.0,19,0.00,,,0.00,Wunderground v.1.15,2013-05-04 08:20:00,
2013-05-04 01:26:00,72.9,26.9,29.66,SSW,211,13.0,13.0,18,0.00,,,0.00,Wunderground v.1.15,2013-05-04 08:26:00,
2013-05-04 01:32:00,72.9,26.9,29.66,SW,227,12.0,15.0,18,0.00,,,0.00,Wunderground v.1.15,2013-05-04 08:32:00,
2013-05-04 01:38:00,73.0,27.0,29.66,SSW,207,12.0,15.0,18,0.00,,,0.00,Wunderground v.1.15,2013-05-04 08:38:00,
2013-05-04 01:44:00,72.9,28.2,29.66,SW,227,12.0,15.0,19,0.00,,,0.00,Wunderground v.1.15,2013-05-04 08:44:00,
2013-05-04 01:50:00,72.8,26.8,29.66,SSW,198,13.0,13.0,18,0.00,,,0.00,Wunderground v.1.15,2013-05-04 08:50:00,
2013-05-04 01:56:00,72.6,27.9,29.65,SW,221,12.0,13.0,19,0.00,,,0.00,Wunderground v.1.15,2013-05-04 08:56:00,
2013-05-04 02:02:00,72.5,27.9,29.65,SW,231,12.0,16.0,19,0.00,,,0.00,Wunderground v.1.15,2013-05-04 09:02:00,
2013-05-04 02:08:00,72.3,27.7,29.65,SSW,213,11.0,16.0,19,0.00,,,0.00,Wunderground v.1.15,2013-05-04 09:08:00,
2013-05-04 02:14:00,72.0,27.5,29.65,SSW,199,9.0,12.0,19,0.00,,,0.00,Wunderground v.1.15,2013-05-04 09:14:00,
2013-05-04 02:20:00,71.7,28.5,29.65,SSW,211,10.0,11.0,20,0.00,,,0.00,Wunderground v.1.15,2013-05-04 09:20:00,
2013-05-04 02:26:00,71.4,28.2,29.64,SSW,199,9.0,11.0,20,0.00,,,0.00,Wunderground v.1.15,2013-05-04 09:26:00,
2013-05-04 02:32:00,71.1,28.0,29.64,SW,217,9.0,9.0,20,0.00,,,0.00,Wunderground v.1.15,2013-05-04 09:32:00,
2013-05-04 02:38:00,70.7,27.6,29.64,SSW,206,9.0,11.0,20,0.00,,,0.00,Wunderground v.1.15,2013-05-04 09:38:00,
2013-05-04 02:44:00,70.5,27.5,29.64,SW,221,8.0,9.0,20,0.00,,,0.00,Wunderground v.1.15,2013-05-04 09:44:00,
2013-05-04 02:50:00,70.3,27.3,29.64,WSW,246,7.0,7.0,20,0.00,,,0.00,Wunderground v.1.15,2013-05-04 09:50:00,
2013-05-04 02:56:00,70.1,27.1,29.64,SSW,202,6.0,7.0,20,0.00,,,0.00,Wunderground v.1.15,2013-05-04 09:56:00,
2013-05-04 03:02:00,69.9,27.0,29.64,SSW,200,8.0,10.0,20,0.00,,,0.00,Wunderground v.1.15,2013-05-04 10:02:00,
2013-05-04 03:08:00,69.8,26.9,29.64,SSW,213,8.0,10.0,20,0.00,,,0.00,Wunderground v.1.15,2013-05-04 10:08:00,
2013-05-04 03:14:00,69.7,26.8,29.64,SW,215,7.0,9.0,20,0.00,,,0.00,Wunderground v.1.15,2013-05-04 10:14:00,
2013-05-04 03:20:00,69.5,26.6,29.63,SSW,209,7.0,7.0,20,0.00,,,0.00,Wunderground v.1.15,2013-05-04 10:20:00,
2013-05-04 03:26:00,69.3,27.7,29.63,SW,223,7.0,10.0,21,0.00,,,0.00,Wunderground v.1.15,2013-05-04 10:26:00,
2013-05-04 03:32:00,69.0,28.5,29.63,SSW,195,8.0,8.0,22,0.00,,,0.00,Wunderground v.1.15,2013-05-04 10:32:00,
2013-05-04 03:38:00,68.8,28.4,29.63,SSW,207,7.0,8.0,22,0.00,,,0.00,Wunderground v.1.15,2013-05-04 10:38:00,
2013-05-04 03:44:00,68.6,28.2,29.63,SW,219,8.0,11.0,22,0.00,,,0.00,Wunderground v.1.15,2013-05-04 10:44:00,
2013-05-04 03:50:00,68.3,29.0,29.62,SW,225,9.0,9.0,23,0.00,,,0.00,Wunderground v.1.15,2013-05-04 10:50:00,
2013-05-04 03:56:00,68.2,29.0,29.62,SSW,198,10.0,10.0,23,0.00,,,0.00,Wunderground v.1.15,2013-05-04 10:56:00,
2013-05-04 04:02:00,68.0,29.8,29.62,SSW,211,10.0,11.0,24,0.00,,,0.00,Wunderground v.1.15,2013-05-04 11:02:00,
2013-05-04 04:08:00,67.9,29.7,29.62,SW,223,10.0,11.0,24,0.00,,,0.00,Wunderground v.1.15,2013-05-04 11:08:00,
2013-05-04 04:14:00,67.9,29.7,29.62,SW,217,11.0,13.0,24,0.00,,,0.00,Wunderground v.1.15,2013-05-04 11:14:00,
2013-05-04 04:20:00,68.1,29.9,29.62,WSW,250,11.0,11.0,24,0.00,,,0.00,Wunderground v.1.15,2013-05-04 11:20:00,
2013-05-04 04:26:00,68.3,30.1,29.62,SW,227,11.0,12.0,24,0.00,,,0.00,Wunderground v.1.15,2013-05-04 11:26:00,
2013-05-04 04:32:00,68.5,30.3,29.61,SSW,213,11.0,14.0,24,0.00,,,0.00,Wunderground v.1.15,2013-05-04 11:32:00,
2013-05-04 04:38:00,68.8,29.5,29.61,SW,219,11.0,14.0,23,0.00,,,0.00,Wunderground v.1.15,2013-05-04 11:38:00,
2013-05-04 04:44:00,68.8,29.5,29.61,SW,219,10.0,11.0,23,0.00,,,0.00,Wunderground v.1.15,2013-05-04 11:44:00,
2013-05-04 04:50:00,68.7,29.4,29.61,SW,221,10.0,14.0,23,0.00,,,0.00,Wunderground v.1.15,2013-05-04 11:50:00,
2013-05-04 04:56:00,68.6,29.3,29.61,SW,218,10.0,14.0,23,0.00,,,0.00,Wunderground v.1.15,2013-05-04 11:56:00,
2013-05-04 05:02:00,68.4,29.1,29.61,SSW,213,9.0,13.0,23,0.00,,,0.00,Wunderground v.1.15,2013-05-04 12:02:00,
2013-05-04 05:08:00,68.1,29.9,29.61,SSW,207,10.0,13.0,24,0.00,,,0.00,Wunderground v.1.15,2013-05-04 12:08:00,
2013-05-04 05:14:00,68.0,29.8,29.61,SSW,209,10.0,10.0,24,0.00,,,0.00,Wunderground v.1.15,2013-05-04 12:14:00,
2013-05-04 05:20:00,67.9,30.8,29.61,SW,230,10.0,10.0,25,0.00,,,0.00,Wunderground v.1.15,2013-05-04 12:20:00,
2013-05-04 05:28:00,67.9,30.8,29.61,SSW,209,10.0,12.0,25,0.00,,,0.00,Wunderground v.1.15,2013-05-04 12:28:00,
2013-05-04 05:34:00,67.9,30.8,29.61,SSW,196,9.0,10.0,25,0.00,,,0.00,Wunderground v.1.15,2013-05-04 12:34:00,
2013-05-04 05:42:00,67.8,30.7,29.61,SW,217,8.0,8.0,25,0.00,,,0.00,Wunderground v.1.15,2013-05-04 12:42:00,
2013-05-04 05:48:00,67.7,31.6,29.61,SW,225,8.0,10.0,26,0.00,,,0.00,Wunderground v.1.15,2013-05-04 12:48:00,
2013-05-04 05:54:00,67.6,31.5,29.61,SW,227,8.0,10.0,26,0.00,,,0.00,Wunderground v.1.15,2013-05-04 12:54:00,
2013-05-04 06:00:00,67.4,31.3,29.61,SW,218,7.0,7.0,26,0.00,,,0.00,Wunderground v.1.15,2013-05-04 13:00:00,
2013-05-04 06:06:00,67.1,31.0,29.61,SW,225,8.0,10.0,26,0.00,,,0.00,Wunderground v.1.15,2013-05-04 13:06:00,
2013-05-04 06:12:00,66.9,30.9,29.61,SW,221,8.0,10.0,26,0.00,,,0.00,Wunderground v.1.15,2013-05-04 13:12:00,
2013-05-04 06:18:00,66.8,30.8,29.61,SW,229,8.0,10.0,26,0.00,,,0.00,Wunderground v.1.15,2013-05-04 13:18:00,
2013-05-04 06:24:00,66.8,30.8,29.61,SW,226,8.0,8.0,26,0.00,,,0.00,Wunderground v.1.15,2013-05-04 13:24:00,
2013-05-04 06:26:00,66.9,30.9,29.61,SW,223,7.0,9.0,26,0.00,,,0.00,Wunderground v.1.15,2013-05-04 13:26:00,
2013-05-04 06:32:00,67.0,30.0,29.61,SW,228,6.0,7.0,25,0.00,,,0.00,Wunderground v.1.15,2013-05-04 13:32:00,
2013-05-04 06:38:00,67.2,28.1,29.61,SW,229,6.0,7.0,23,0.00,,,0.00,Wunderground v.1.15,2013-05-04 13:38:00,
2013-05-04 06:44:00,67.6,27.4,29.61,SW,230,6.0,6.0,22,0.00,,,0.00,Wunderground v.1.15,2013-05-04 13:44:00,
2013-05-04 06:50:00,68.0,27.7,29.61,SW,222,6.0,7.0,22,0.00,,,0.00,Wunderground v.1.15,2013-05-04 13:50:00,
2013-05-04 06:56:00,68.5,27.0,29.61,SW,224,6.0,7.0,21,0.00,,,0.00,Wunderground v.1.15,2013-05-04 13:56:00,
2013-05-04 07:02:00,69.3,27.7,29.61,SW,236,6.0,6.0,21,0.00,,,0.00,Wunderground v.1.15,2013-05-04 14:02:00,
2013-05-04 07:08:00,70.0,25.8,29.61,WSW,242,5.0,6.0,19,0.00,,,0.00,Wunderground v.1.15,2013-05-04 14:08:00,
2013-05-04 07:14:00,70.6,26.3,29.61,SW,233,5.0,7.0,19,0.00,,,0.00,Wunderground v.1.15,2013-05-04 14:14:00,
2013-05-04 07:20:00,71.3,25.6,29.61,SW,231,6.0,6.0,18,0.00,,,0.00,Wunderground v.1.15,2013-05-04 14:20:00,
2013-05-04 07:26:00,71.7,25.9,29.62,SW,230,5.0,7.0,18,0.00,,,0.00,Wunderground v.1.15,2013-05-04 14:26:00,
2013-05-04 07:32:00,72.1,28.8,29.61,SW,221,6.0,10.0,20,0.00,,,0.00,Wunderground v.1.15,2013-05-04 14:32:00,
2013-05-04 07:38:00,72.3,27.7,29.61,SSW,213,8.0,10.0,19,0.00,,,0.00,Wunderground v.1.15,2013-05-04 14:38:00,
2013-05-04 07:44:00,72.6,25.3,29.61,SW,224,8.0,9.0,17,0.00,,,0.00,Wunderground v.1.15,2013-05-04 14:44:00,
2013-05-04 07:50:00,72.9,24.0,29.61,WSW,250,6.0,6.0,16,0.00,,,0.00,Wunderground v.1.15,2013-05-04 14:50:00,
2013-05-04 07:56:00,73.3,25.8,29.61,SW,234,4.0,6.0,17,0.00,,,0.00,Wunderground v.1.15,2013-05-04 14:56:00,
2013-05-04 08:02:00,73.7,24.7,29.61,WSW,249,3.0,5.0,16,0.00,,,0.00,Wunderground v.1.15,2013-05-04 15:02:00,
2013-05-04 08:08:00,74.1,25.0,29.61,West,261,4.0,6.0,16,0.00,,,0.00,Wunderground v.1.15,2013-05-04 15:08:00,
2013-05-04 08:14:00,74.5,25.3,29.61,WSW,254,4.0,9.0,16,0.00,,,0.00,Wunderground v.1.15,2013-05-04 15:14:00,
2013-05-04 08:20:00,74.8,24.0,29.61,WNW,294,5.0,6.0,15,0.00,,,0.00,Wunderground v.1.15,2013-05-04 15:20:00,
2013-05-04 08:26:00,75.2,24.3,29.61,West,273,5.0,6.0,15,0.00,,,0.00,Wunderground v.1.15,2013-05-04 15:26:00,
2013-05-04 08:32:00,75.5,24.6,29.60,West,263,4.0,5.0,15,0.00,,,0.00,Wunderground v.1.15,2013-05-04 15:32:00,
2013-05-04 08:38:00,75.9,24.9,29.60,WSW,258,4.0,5.0,15,0.00,,,0.00,Wunderground v.1.15,2013-05-04 15:38:00,
2013-05-04 08:44:00,76.6,23.8,29.60,West,279,4.0,5.0,14,0.00,,,0.00,Wunderground v.1.15,2013-05-04 15:44:00,
2013-05-04 08:50:00,77.2,24.3,29.60,West,273,4.0,4.0,14,0.00,,,0.00,Wunderground v.1.15,2013-05-04 15:50:00,
2013-05-04 08:56:00,77.8,24.8,29.60,WNW,302,5.0,6.0,14,0.00,,,0.00,Wunderground v.1.15,2013-05-04 15:56:00,
2013-05-04 09:02:00,78.7,23.7,29.60,WNW,302,5.0,5.0,13,0.00,,,0.00,Wunderground v.1.15,2013-05-04 16:02:00,
2013-05-04 09:08:00,79.5,24.3,29.60,WNW,291,3.0,5.0,13,0.00,,,0.00,Wunderground v.1.15,2013-05-04 16:08:00,
2013-05-04 09:14:00,80.6,25.2,29.59,WNW,294,2.0,3.0,13,0.00,,,0.00,Wunderground v.1.15,2013-05-04 16:14:00,
2013-05-04 09:20:00,80.8,23.4,29.59,West,280,2.0,2.0,12,0.00,,,0.00,Wunderground v.1.15,2013-05-04 16:20:00,
2013-05-04 09:26:00,81.6,22.0,29.59,West,280,1.0,2.0,11,0.00,,,0.00,Wunderground v.1.15,2013-05-04 16:26:00,
2013-05-04 09:32:00,82.2,24.5,29.59,West,280,1.0,3.0,12,0.00,,,0.00,Wunderground v.1.15,2013-05-04 16:32:00,
2013-05-04 09:38:00,82.9,23.0,29.59,WNW,282,0.0,4.0,11,0.00,,,0.00,Wunderground v.1.15,2013-05-04 16:38:00,
2013-05-04 09:44:00,84.1,23.9,29.59,NNW,331,3.0,4.0,11,0.00,,,0.00,Wunderground v.1.15,2013-05-04 16:44:00,
2013-05-04 09:50:00,84.5,24.2,29.59,NNW,331,3.0,3.0,11,0.00,,,0.00,Wunderground v.1.15,2013-05-04 16:50:00,
2013-05-04 09:56:00,84.1,23.9,29.58,NNW,332,1.0,3.0,11,0.00,,,0.00,Wunderground v.1.15,2013-05-04 16:56:00,
2013-05-04 10:02:00,83.9,25.8,29.58,NNW,333,0.0,1.0,12,0.00,,,0.00,Wunderground v.1.15,2013-05-04 17:02:00,
2013-05-04 10:08:00,83.9,23.7,29.58,NNW,333,0.0,1.0,11,0.00,,,0.00,Wunderground v.1.15,2013-05-04 17:08:00,
2013-05-04 10:14:00,84.2,24.0,29.58,North,5,1.0,2.0,11,0.00,,,0.00,Wunderground v.1.15,2013-05-04 17:14:00,
2013-05-04 10:20:00,85.1,24.7,29.58,NNE,28,2.0,3.0,11,0.00,,,0.00,Wunderground v.1.15,2013-05-04 17:20:00,
2013-05-04 10:26:00,85.5,22.7,29.58,NE,34,2.0,4.0,10,0.00,,,0.00,Wunderground v.1.15,2013-05-04 17:26:00,
2013-05-04 10:32:00,85.7,25.1,29.58,NE,36,2.0,3.0,11,0.00,,,0.00,Wunderground v.1.15,2013-05-04 17:32:00,
2013-05-04 10:38:00,84.8,22.2,29.57,NE,39,1.0,3.0,10,0.00,,,0.00,Wunderground v.1.15,2013-05-04 17:38:00,
2013-05-04 10:44:00,85.6,25.0,29.57,NE,46,1.0,2.0,11,0.00,,,0.00,Wunderground v.1.15,2013-05-04 17:44:00,
2013-05-04 10:50:00,86.4,23.4,29.57,NE,44,3.0,4.0,10,0.00,,,0.00,Wunderground v.1.15,2013-05-04 17:50:00,
2013-05-04 10:56:00,87.1,23.9,29.57,NE,46,3.0,4.0,10,0.00,,,0.00,Wunderground v.1.15,2013-05-04 17:56:00,
2013-05-04 11:02:00,87.1,23.9,29.57,ENE,64,3.0,3.0,10,0.00,,,0.00,Wunderground v.1.15,2013-05-04 18:02:00,
2013-05-04 11:08:00,87.4,21.6,29.57,ENE,64,2.0,3.0,9,0.00,,,0.00,Wunderground v.1.15,2013-05-04 18:08:00,
2013-05-04 11:14:00,87.9,24.5,29.56,ENE,63,1.0,3.0,10,0.00,,,0.00,Wunderground v.1.15,2013-05-04 18:14:00,
2013-05-04 11:20:00,87.7,21.8,29.56,ESE,122,3.0,3.0,9,0.00,,,0.00,Wunderground v.1.15,2013-05-04 18:20:00,
2013-05-04 11:26:00,87.6,24.3,29.56,SE,132,2.0,5.0,10,0.00,,,0.00,Wunderground v.1.15,2013-05-04 18:26:00,
2013-05-04 11:32:00,87.7,24.4,29.55,SE,133,2.0,3.0,10,0.00,,,0.00,Wunderground v.1.15,2013-05-04 18:32:00,
2013-05-04 11:38:00,88.2,22.2,29.55,ESE,107,2.0,5.0,9,0.00,,,0.00,Wunderground v.1.15,2013-05-04 18:38:00,
2013-05-04 11:44:00,89.3,23.0,29.55,NNE,32,3.0,9.0,9,0.00,,,0.00,Wunderground v.1.15,2013-05-04 18:44:00,
2013-05-04 11:50:00,89.8,23.4,29.55,North,5,5.0,5.0,9,0.00,,,0.00,Wunderground v.1.15,2013-05-04 18:50:00,
2013-05-04 11:56:00,89.6,23.3,29.54,East,94,5.0,5.0,9,0.00,,,0.00,Wunderground v.1.15,2013-05-04 18:56:00,
2013-05-04 12:02:00,88.6,25.0,29.54,East,92,4.0,4.0,10,0.00,,,0.00,Wunderground v.1.15,2013-05-04 19:02:00,
2013-05-04 12:08:00,88.7,22.6,29.54,East,80,3.0,4.0,9,0.00,,,0.00,Wunderground v.1.15,2013-05-04 19:08:00,
2013-05-04 12:14:00,89.1,22.9,29.53,ENE,74,3.0,4.0,9,0.00,,,0.00,Wunderground v.1.15,2013-05-04 19:14:00,
2013-05-04 12:20:00,88.6,22.5,29.53,NE,45,3.0,4.0,9,0.00,,,0.00,Wunderground v.1.15,2013-05-04 19:20:00,
2013-05-04 12:26:00,88.9,22.7,29.53,NE,50,3.0,5.0,9,0.00,,,0.00,Wunderground v.1.15,2013-05-04 19:26:00,
2013-05-04 12:32:00,89.1,22.9,29.52,ENE,61,5.0,6.0,9,0.00,,,0.00,Wunderground v.1.15,2013-05-04 19:32:00,
2013-05-04 12:38:00,88.6,22.5,29.52,NNE,30,6.0,11.0,9,0.00,,,0.00,Wunderground v.1.15,2013-05-04 19:38:00,
2013-05-04 12:44:00,89.0,22.8,29.52,NW,315,6.0,6.0,9,0.00,,,0.00,Wunderground v.1.15,2013-05-04 19:44:00,
2013-05-04 12:50:00,89.5,23.2,29.51,WSW,239,4.0,6.0,9,0.00,,,0.00,Wunderground v.1.15,2013-05-04 19:50:00,
2013-05-04 12:56:00,89.5,23.2,29.51,SE,136,5.0,9.0,9,0.00,,,0.00,Wunderground v.1.15,2013-05-04 19:56:00,
2013-05-04 13:02:00,89.6,23.3,29.51,SSE,164,5.0,5.0,9,0.00,,,0.00,Wunderground v.1.15,2013-05-04 20:02:00,
2013-05-04 13:08:00,90.2,23.7,29.51,ESE,123,3.0,10.0,9,0.00,,,0.00,Wunderground v.1.15,2013-05-04 20:08:00,
2013-05-04 13:14:00,91.3,24.5,29.51,SW,217,8.0,10.0,9,0.00,,,0.00,Wunderground v.1.15,2013-05-04 20:14:00,
2013-05-04 13:20:00,90.8,24.2,29.50,SW,234,9.0,9.0,9,0.00,,,0.00,Wunderground v.1.15,2013-05-04 20:20:00,
2013-05-04 13:26:00,90.9,24.2,29.50,WSW,257,5.0,13.0,9,0.00,,,0.00,Wunderground v.1.15,2013-05-04 20:26:00,
2013-05-04 13:32:00,91.6,24.8,29.50,West,266,8.0,10.0,9,0.00,,,0.00,Wunderground v.1.15,2013-05-04 20:32:00,
2013-05-04 13:38:00,91.7,24.8,29.50,NW,321,8.0,10.0,9,0.00,,,0.00,Wunderground v.1.15,2013-05-04 20:38:00,
2013-05-04 13:44:00,92.6,25.5,29.49,NNW,329,4.0,6.0,9,0.00,,,0.00,Wunderground v.1.15,2013-05-04 20:44:00,
2013-05-04 13:50:00,92.4,25.4,29.49,NNW,332,3.0,3.0,9,0.00,,,0.00,Wunderground v.1.15,2013-05-04 20:50:00,
2013-05-04 13:56:00,91.9,27.5,29.49,South,178,5.0,15.0,10,0.00,,,0.00,Wunderground v.1.15,2013-05-04 20:56:00,
2013-05-04 14:02:00,91.8,27.5,29.48,SE,136,8.0,13.0,10,0.00,,,0.00,Wunderground v.1.15,2013-05-04 21:02:00,
2013-05-04 14:08:00,91.8,29.8,29.48,West,263,8.0,13.0,11,0.00,,,0.00,Wunderground v.1.15,2013-05-04 21:08:00,
2013-05-04 14:14:00,92.3,30.2,29.48,South,169,6.0,16.0,11,0.00,,,0.00,Wunderground v.1.15,2013-05-04 21:14:00,
2013-05-04 14:20:00,92.6,30.4,29.47,SSE,150,9.0,18.0,11,0.00,,,0.00,Wunderground v.1.15,2013-05-04 21:20:00,
2013-05-04 14:26:00,92.7,30.5,29.47,South,177,13.0,18.0,11,0.00,,,0.00,Wunderground v.1.15,2013-05-04 21:26:00,
2013-05-04 14:32:00,92.4,32.4,29.47,South,177,13.0,15.0,12,0.00,,,0.00,Wunderground v.1.15,2013-05-04 21:32:00,
2013-05-04 14:38:00,93.1,30.8,29.46,SW,224,10.0,15.0,11,0.00,,,0.00,Wunderground v.1.15,2013-05-04 21:38:00,
2013-05-04 14:44:00,93.3,31.0,29.46,South,180,14.0,23.0,11,0.00,,,0.00,Wunderground v.1.15,2013-05-04 21:44:00,
2013-05-04 14:50:00,92.3,30.2,29.46,SSW,197,14.0,14.0,11,0.00,,,0.00,Wunderground v.1.15,2013-05-04 21:50:00,
2013-05-04 14:56:00,91.7,29.7,29.45,South,182,8.0,28.0,11,0.00,,,0.00,Wunderground v.1.15,2013-05-04 21:56:00,
2013-05-04 15:02:00,91.5,29.6,29.45,SSW,200,16.0,22.0,11,0.00,,,0.00,Wunderground v.1.15,2013-05-04 22:02:00,
2013-05-04 15:08:00,92.0,32.1,29.45,South,171,19.0,26.0,12,0.00,,,0.00,Wunderground v.1.15,2013-05-04 22:08:00,
2013-05-04 15:14:00,92.3,32.3,29.44,SSE,161,17.0,29.0,12,0.00,,,0.00,Wunderground v.1.15,2013-05-04 22:14:00,
2013-05-04 15:20:00,91.7,31.9,29.44,South,183,20.0,25.0,12,0.00,,,0.00,Wunderground v.1.15,2013-05-04 22:20:00,
2013-05-04 15:26:00,91.4,31.6,29.44,South,190,22.0,29.0,12,0.00,,,0.00,Wunderground v.1.15,2013-05-04 22:26:00,
2013-05-04 15:32:00,91.0,31.3,29.44,South,178,22.0,26.0,12,0.00,,,0.00,Wunderground v.1.15,2013-05-04 22:32:00,
2013-05-04 15:38:00,90.8,31.2,29.43,South,171,22.0,28.0,12,0.00,,,0.00,Wunderground v.1.15,2013-05-04 22:38:00,
2013-05-04 15:44:00,89.6,32.2,29.43,SSE,168,25.0,33.0,13,0.00,,,0.00,Wunderground v.1.15,2013-05-04 22:44:00,
2013-05-04 15:50:00,88.0,31.0,29.42,South,173,27.0,27.0,13,0.00,,,0.00,Wunderground v.1.15,2013-05-04 22:50:00,
2013-05-04 15:56:00,88.0,31.0,29.43,South,187,27.0,32.0,13,0.00,,,0.00,Wunderground v.1.15,2013-05-04 22:56:00,
2013-05-04 16:02:00,88.7,31.5,29.42,South,177,27.0,30.0,13,0.00,,,0.00,Wunderground v.1.15,2013-05-04 23:02:00,
2013-05-04 16:08:00,88.5,31.4,29.42,South,174,29.0,33.0,13,0.00,,,0.00,Wunderground v.1.15,2013-05-04 23:08:00,
2013-05-04 16:14:00,88.0,31.0,29.41,South,186,31.0,33.0,13,0.00,,,0.00,Wunderground v.1.15,2013-05-04 23:14:00,
2013-05-04 16:20:00,87.3,32.3,29.41,South,174,28.0,28.0,14,0.00,,,0.00,Wunderground v.1.15,2013-05-04 23:20:00,
2013-05-04 16:26:00,85.9,31.2,29.41,South,182,28.0,36.0,14,0.00,,,0.00,Wunderground v.1.15,2013-05-04 23:26:00,
2013-05-04 16:32:00,85.0,32.2,29.41,South,185,31.0,37.0,15,0.00,,,0.00,Wunderground v.1.15,2013-05-04 23:32:00,
2013-05-04 16:38:00,85.2,32.3,29.40,SSE,165,31.0,37.0,15,0.00,,,0.00,Wunderground v.1.15,2013-05-04 23:38:00,
2013-05-04 16:44:00,85.9,32.9,29.41,South,184,32.0,40.0,15,0.00,,,0.00,Wunderground v.1.15,2013-05-04 23:44:00,
2013-05-04 16:50:00,86.2,33.1,29.41,South,187,32.0,32.0,15,0.00,,,0.00,Wunderground v.1.15,2013-05-04 23:50:00,
2013-05-04 16:56:00,86.2,34.7,29.41,South,171,31.0,33.0,16,0.00,,,0.00,Wunderground v.1.15,2013-05-04 23:56:00,
2013-05-04 17:02:00,85.5,34.2,29.41,South,179,31.0,31.0,16,0.00,,,0.00,Wunderground v.1.15,2013-05-05 00:02:00,
2013-05-04 17:08:00,85.2,35.5,29.41,South,180,31.0,31.0,17,0.00,,,0.00,Wunderground v.1.15,2013-05-05 00:08:00,
2013-05-04 17:14:00,85.3,35.5,29.41,SSE,167,30.0,31.0,17,0.00,,,0.00,Wunderground v.1.15,2013-05-05 00:14:00,
2013-05-04 17:20:00,85.1,35.4,29.41,South,172,30.0,30.0,17,0.00,,,0.00,Wunderground v.1.15,2013-05-05 00:20:00,
2013-05-04 17:26:00,84.8,35.1,29.41,South,176,31.0,33.0,17,0.00,,,0.00,Wunderground v.1.15,2013-05-05 00:26:00,
2013-05-04 17:32:00,84.6,35.0,29.42,South,175,31.0,32.0,17,0.00,,,0.00,Wunderground v.1.15,2013-05-05 00:32:00,
2013-05-04 17:38:00,84.3,34.7,29.42,South,181,30.0,32.0,17,0.00,,,0.00,Wunderground v.1.15,2013-05-05 00:38:00,
2013-05-04 17:44:00,84.0,35.9,29.42,South,184,29.0,30.0,18,0.00,,,0.00,Wunderground v.1.15,2013-05-05 00:44:00,
2013-05-04 17:50:00,83.7,35.7,29.42,South,190,31.0,31.0,18,0.00,,,0.00,Wunderground v.1.15,2013-05-05 00:50:00,
2013-05-04 17:56:00,83.5,35.5,29.42,South,180,29.0,31.0,18,0.00,,,0.00,Wunderground v.1.15,2013-05-05 00:56:00,
2013-05-04 18:02:00,83.2,35.3,29.42,South,185,28.0,39.0,18,0.00,,,0.00,Wunderground v.1.15,2013-05-05 01:02:00,
2013-05-04 18:08:00,82.7,36.2,29.42,SSW,194,29.0,39.0,19,0.00,,,0.00,Wunderground v.1.15,2013-05-05 01:08:00,
2013-05-04 18:14:00,82.1,35.7,29.42,South,191,31.0,38.0,19,0.00,,,0.00,Wunderground v.1.15,2013-05-05 01:14:00,
2013-05-04 18:20:00,81.8,35.5,29.42,South,186,31.0,31.0,19,0.00,,,0.00,Wunderground v.1.15,2013-05-05 01:20:00,
2013-05-04 18:26:00,81.1,34.9,29.42,SSW,209,31.0,36.0,19,0.00,,,0.00,Wunderground v.1.15,2013-05-05 01:26:00,
2013-05-04 18:32:00,80.8,36.0,29.43,South,190,29.0,31.0,20,0.00,,,0.00,Wunderground v.1.15,2013-05-05 01:32:00,
2013-05-04 18:38:00,80.0,35.3,29.42,South,186,29.0,36.0,20,0.00,,,0.00,Wunderground v.1.15,2013-05-05 01:38:00,
2013-05-04 18:44:00,79.4,36.0,29.42,South,172,32.0,35.0,21,0.00,,,0.00,Wunderground v.1.15,2013-05-05 01:44:00,
2013-05-04 18:50:00,78.9,35.6,29.43,SSW,193,31.0,31.0,21,0.00,,,0.00,Wunderground v.1.15,2013-05-05 01:50:00,
2013-05-04 18:56:00,78.5,36.5,29.43,South,190,29.0,31.0,22,0.00,,,0.00,Wunderground v.1.15,2013-05-05 01:56:00,
2013-05-04 19:02:00,78.0,36.1,29.44,South,173,29.0,33.0,22,0.00,,,0.00,Wunderground v.1.15,2013-05-05 02:02:00,
2013-05-04 19:08:00,77.7,35.8,29.44,South,187,29.0,36.0,22,0.00,,,0.00,Wunderground v.1.15,2013-05-05 02:08:00,
2013-05-04 19:14:00,77.2,36.5,29.44,SSW,202,28.0,32.0,23,0.00,,,0.00,Wunderground v.1.15,2013-05-05 02:14:00,
2013-05-04 19:20:00,76.7,36.1,29.45,South,191,28.0,28.0,23,0.00,,,0.00,Wunderground v.1.15,2013-05-05 02:20:00,
2013-05-04 19:26:00,76.3,36.8,29.45,South,179,26.0,29.0,24,0.00,,,0.00,Wunderground v.1.15,2013-05-05 02:26:00,
2013-05-04 19:32:00,75.7,36.3,29.46,South,178,26.0,28.0,24,0.00,,,0.00,Wunderground v.1.15,2013-05-05 02:32:00,
2013-05-04 19:38:00,75.1,36.9,29.46,South,178,26.0,31.0,25,0.00,,,0.00,Wunderground v.1.15,2013-05-05 02:38:00,
2013-05-04 19:44:00,74.5,36.4,29.46,South,176,26.0,33.0,25,0.00,,,0.00,Wunderground v.1.15,2013-05-05 02:44:00,
2013-05-04 19:50:00,74.0,36.9,29.46,South,174,28.0,28.0,26,0.00,,,0.00,Wunderground v.1.15,2013-05-05 02:50:00,
2013-05-04 19:56:00,73.7,36.7,29.46,South,180,28.0,29.0,26,0.00,,,0.00,Wunderground v.1.15,2013-05-05 02:56:00,
2013-05-04 20:02:00,73.2,37.2,29.47,South,186,28.0,28.0,27,0.00,,,0.00,Wunderground v.1.15,2013-05-05 03:02:00,
2013-05-04 20:08:00,72.8,36.9,29.47,SSW,199,27.0,30.0,27,0.00,,,0.00,Wunderground v.1.15,2013-05-05 03:08:00,
2013-05-04 20:14:00,72.5,36.6,29.47,South,189,29.0,33.0,27,0.00,,,0.00,Wunderground v.1.15,2013-05-05 03:14:00,
2013-05-04 20:20:00,72.0,37.1,29.48,SSW,196,28.0,34.0,28,0.00,,,0.00,Wunderground v.1.15,2013-05-05 03:20:00,
2013-05-04 20:26:00,71.6,37.6,29.47,South,189,28.0,34.0,29,0.00,,,0.00,Wunderground v.1.15,2013-05-05 03:26:00,
2013-05-04 20:32:00,71.3,37.4,29.48,South,180,28.0,29.0,29,0.00,,,0.00,Wunderground v.1.15,2013-05-05 03:32:00,
2013-05-04 20:38:00,71.0,37.1,29.48,South,180,28.0,30.0,29,0.00,,,0.00,Wunderground v.1.15,2013-05-05 03:38:00,
2013-05-04 20:44:00,70.8,37.0,29.48,South,179,26.0,31.0,29,0.00,,,0.00,Wunderground v.1.15,2013-05-05 03:44:00,
2013-05-04 20:50:00,70.8,37.0,29.48,South,186,25.0,25.0,29,0.00,,,0.00,Wunderground v.1.15,2013-05-05 03:50:00,
2013-05-04 20:56:00,70.8,37.0,29.49,South,175,24.0,25.0,29,0.00,,,0.00,Wunderground v.1.15,2013-05-05 03:56:00,
2013-05-04 21:02:00,70.9,37.0,29.49,South,179,23.0,25.0,29,0.00,,,0.00,Wunderground v.1.15,2013-05-05 04:02:00,
2013-05-04 21:04:00,70.8,36.1,29.49,South,188,23.0,25.0,28,0.00,,,0.00,Wunderground v.1.15,2013-05-05 04:04:00,
2013-05-04 21:06:00,70.8,37.0,29.49,South,190,23.0,25.0,29,0.00,,,0.00,Wunderground v.1.15,2013-05-05 04:06:00,
2013-05-04 21:08:00,70.7,36.9,29.50,South,175,23.0,25.0,29,0.00,,,0.00,Wunderground v.1.15,2013-05-05 04:08:00,
2013-05-04 21:14:00,70.5,36.7,29.50,SSW,192,23.0,27.0,29,0.00,,,0.00,Wunderground v.1.15,2013-05-05 04:14:00,
2013-05-04 21:20:00,70.5,36.7,29.50,South,191,23.0,23.0,29,0.00,,,0.00,Wunderground v.1.15,2013-05-05 04:20:00,
2013-05-04 21:26:00,70.5,35.8,29.50,South,184,23.0,24.0,28,0.00,,,0.00,Wunderground v.1.15,2013-05-05 04:26:00,
2013-05-04 21:32:00,70.3,35.6,29.50,South,187,22.0,23.0,28,0.00,,,0.00,Wunderground v.1.15,2013-05-05 04:32:00,
2013-05-04 21:38:00,70.1,35.5,29.50,South,187,22.0,24.0,28,0.00,,,0.00,Wunderground v.1.15,2013-05-05 04:38:00,
2013-05-04 21:44:00,70.0,35.4,29.50,SSW,198,22.0,23.0,28,0.00,,,0.00,Wunderground v.1.15,2013-05-05 04:44:00,
2013-05-04 21:50:00,70.0,35.4,29.50,South,185,23.0,23.0,28,0.00,,,0.00,Wunderground v.1.15,2013-05-05 04:50:00,
2013-05-04 21:56:00,69.8,35.2,29.50,South,182,23.0,31.0,28,0.00,,,0.00,Wunderground v.1.15,2013-05-05 04:56:00,
2013-05-04 22:02:00,69.6,35.0,29.50,South,188,22.0,28.0,28,0.00,,,0.00,Wunderground v.1.15,2013-05-05 05:02:00,
2013-05-04 22:08:00,69.4,34.9,29.50,SSW,205,23.0,32.0,28,0.00,,,0.00,Wunderground v.1.15,2013-05-05 05:08:00,
2013-05-04 22:14:00,69.3,34.8,29.50,South,189,24.0,28.0,28,0.00,,,0.00,Wunderground v.1.15,2013-05-05 05:14:00,
2013-05-04 22:20:00,69.2,34.7,29.50,SSW,194,23.0,23.0,28,0.00,,,0.00,Wunderground v.1.15,2013-05-05 05:20:00,
2013-05-04 22:26:00,69.1,34.6,29.50,SSW,200,23.0,25.0,28,0.00,,,0.00,Wunderground v.1.15,2013-05-05 05:26:00,
2013-05-04 22:32:00,68.8,35.2,29.50,SSW,204,24.0,24.0,29,0.00,,,0.00,Wunderground v.1.15,2013-05-05 05:32:00,
2013-05-04 22:38:00,68.5,35.0,29.50,SSW,192,25.0,29.0,29,0.00,,,0.00,Wunderground v.1.15,2013-05-05 05:38:00,
2013-05-04 22:44:00,68.3,35.6,29.51,South,188,26.0,32.0,30,0.00,,,0.00,Wunderground v.1.15,2013-05-05 05:44:00,
2013-05-04 22:50:00,67.9,34.4,29.51,South,184,26.0,29.0,29,0.00,,,0.00,Wunderground v.1.15,2013-05-05 05:50:00,
2013-05-04 22:56:00,68.1,34.6,29.51,SSW,205,25.0,29.0,29,0.00,,,0.00,Wunderground v.1.15,2013-05-05 05:56:00,
2013-05-04 23:02:00,68.0,34.5,29.51,South,190,25.0,27.0,29,0.00,,,0.00,Wunderground v.1.15,2013-05-05 06:02:00,
2013-05-04 23:08:00,67.8,33.5,29.51,South,191,25.0,31.0,28,0.00,,,0.00,Wunderground v.1.15,2013-05-05 06:08:00,
2013-05-04 23:14:00,67.7,33.4,29.51,SSW,194,25.0,31.0,28,0.00,,,0.00,Wunderground v.1.15,2013-05-05 06:14:00,
2013-05-04 23:20:00,67.7,33.4,29.51,SSW,205,25.0,30.0,28,0.00,,,0.00,Wunderground v.1.15,2013-05-05 06:20:00,
2013-05-04 23:26:00,67.7,33.4,29.51,SSW,192,25.0,32.0,28,0.00,,,0.00,Wunderground v.1.15,2013-05-05 06:26:00,
2013-05-04 23:32:00,67.2,33.0,29.51,South,189,27.0,33.0,28,0.00,,,0.00,Wunderground v.1.15,2013-05-05 06:32:00,
2013-05-04 23:38:00,67.0,32.8,29.52,SSW,204,26.0,33.0,28,0.00,,,0.00,Wunderground v.1.15,2013-05-05 06:38:00,
2013-05-04 23:44:00,67.1,32.9,29.52,SSW,199,25.0,30.0,28,0.00,,,0.00,Wunderground v.1.15,2013-05-05 06:44:00,
2013-05-04 23:50:00,66.9,31.8,29.52,South,188,25.0,25.0,27,0.00,,,0.00,Wunderground v.1.15,2013-05-05 06:50:00,
2013-05-04 23:56:00,66.7,31.6,29.52,South,189,25.0,25.0,27,0.00,,,0.00,Wunderground v.1.15,2013-05-05 06:56:00,